Windsor, Ontario

8:47 AM EDT on May 24, 2017 (GMT -0400)
Windsor

Weather History for CYQG - November, 2013

Change the Weather History Date:

Tuesday, November 26, 2013

  Actual Average Record
Temperature  
Mean Temperature 32 °F -  
Max Temperature 34 °F 37 °F 60 °F (2011)
Min Temperature 29 °F 23 °F 21 °F (2005)
Degree Days  
Heating Degree Days 34    
Moisture  
Dew Point 25 °F    
Average Humidity 73    
Maximum Humidity 80    
Minimum Humidity 55    
Precipitation  
Precipitation 0.00 in 0.11 in - ()
Sea Level Pressure  
Sea Level Pressure 30.05 in    
Wind  
Wind Speed 10 mph ()    
Max Wind Speed 17 mph    
Max Gust Speed 18 mph    
Visibility 10.8 miles    
Events Snow    
Averages and records for this station are not official NWS values.
T = Trace of Precipitation, MM = Missing Value Source: Averaged Metar Reports

Daily Weather History Graph

Daily Weather History Graph

Search for Another Location

Airport or City:

Trip Planner

Search our weather history database for the weather conditions in past years. The results will help you decide how hot, cold, wet, or windy it might be!

Date:

Astronomy

Nov. 26, 2013 Rise Set
Actual Time 7:35 AM EST 5:02 PM EST
Civil Twilight 7:04 AM EST 5:33 PM EST
Nautical Twilight 6:30 AM EST 6:08 PM EST
Astronomical Twilight 5:56 AM EST 6:41 PM EST
Moon 12:31 AM EST (11/26) 1:15 PM EST (11/26)
Length of Visible Light 10h 28m
Length of Day
9h 26m
Last Quarter, 41% of the Moon is Illuminated
Nov 26
Last Quarter
Dec 2
New
Dec 9
First Quarter
Dec 17
Full
Dec 25
Last Quarter

Hourly Weather History & Observations

Time (EST) Temp. Windchill Dew Point Humidity Pressure Visibility Wind Dir Wind Speed Gust Speed Precip Events Conditions
12:00 AM 30.2 °F 18.5 °F 21.2 °F 69% 30.14 in 12.0 mi WSW 17.3 mph - N/A   Overcast
1:00 AM 31 °F - 21 °F 55% 30.13 in 12 mi WSW 12.7 mph - -   Overcast
1:00 AM 30.2 °F 20.2 °F 21.2 °F 69% 30.13 in 12.0 mi WSW 12.7 mph - N/A   Overcast
2:00 AM 30.2 °F 20.2 °F 21.2 °F 69% 30.13 in 12.0 mi WSW 12.7 mph 18.4 mph N/A   Overcast
3:00 AM 30.2 °F 20.8 °F 23.0 °F 75% 30.13 in 12.0 mi SW 11.5 mph 17.3 mph N/A   Overcast
4:00 AM 30.2 °F 19.3 °F 23.0 °F 75% 30.11 in 12.0 mi SW 15.0 mph - N/A   Overcast
5:00 AM 30.2 °F 21.9 °F 23.0 °F 75% 30.12 in 12.0 mi SW 9.2 mph - N/A   Overcast
6:00 AM 30.2 °F 20.8 °F 23.0 °F 75% 30.12 in 12.0 mi WSW 11.5 mph - N/A   Overcast
6:46 AM - - - N/A% - 12.0 mi WSW 8.1 mph - N/A   Unknown
7:00 AM 31 °F - 24 °F 64% 30.11 in 12 mi SW 6.9 mph - - Snow Light Snow Showers
7:00 AM 30.2 °F 23.4 °F 23.0 °F 75% 30.11 in 12.0 mi SW 6.9 mph - N/A Snow Light Snow Showers
7:20 AM - - - N/A% - 15.0 mi SW 9.2 mph - N/A   Overcast
8:00 AM 30.2 °F 21.9 °F 24.8 °F 80% 30.11 in 12.0 mi SW 9.2 mph - N/A   Overcast
9:00 AM 30.2 °F 22.6 °F 24.8 °F 80% 30.10 in 12.0 mi SW 8.1 mph - N/A   Overcast
10:00 AM 32.0 °F 23.6 °F 24.8 °F 75% 30.09 in 12.0 mi SW 10.4 mph - N/A   Overcast
11:00 AM 33.8 °F 25.3 °F 24.8 °F 70% 30.09 in 12.0 mi SSW 11.5 mph - N/A   Mostly Cloudy
12:00 PM 33.8 °F 25.3 °F 26.6 °F 75% 30.06 in 12.0 mi SW 11.5 mph - N/A   Mostly Cloudy
1:00 PM 34 °F - 27 °F 65% 30.05 in 12 mi SW 11.5 mph - -   Partly Cloudy
1:00 PM 33.8 °F 25.3 °F 26.6 °F 75% 30.05 in 12.0 mi SW 11.5 mph - N/A   Overcast
2:00 PM 33.8 °F 27.0 °F 26.6 °F 75% 30.00 in 12.0 mi South 8.1 mph - N/A   Overcast
3:00 PM 33.8 °F 27.0 °F 26.6 °F 75% 29.99 in 12.0 mi SSW 8.1 mph - N/A   Overcast
4:00 PM 33.8 °F 29.6 °F 24.8 °F 70% 29.97 in 8.0 mi SW 4.6 mph - N/A   Overcast
5:00 PM 33.8 °F 29.6 °F 26.6 °F 75% 29.97 in 8.0 mi SW 4.6 mph - N/A   Overcast
6:00 PM 33.8 °F 28.6 °F 26.6 °F 75% 29.97 in 8.0 mi South 5.8 mph - N/A   Overcast
7:00 PM 33 °F - 26 °F 67% 29.95 in 7 mi South 2.3 mph - -   Overcast
7:00 PM 33.8 °F - 26.6 °F 75% 29.95 in 8.0 mi SSW 2.3 mph - N/A   Overcast
8:00 PM 33.8 °F 28.6 °F 26.6 °F 75% 29.95 in 8.0 mi West 5.8 mph - N/A   Overcast
9:00 PM 33.8 °F 27.7 °F 26.6 °F 75% 29.94 in 8.0 mi WNW 6.9 mph - N/A   Overcast
9:03 PM - - - N/A% - 8.0 mi WNW 8.1 mph - N/A   Unknown
10:00 PM 33.8 °F 25.8 °F 26.6 °F 75% 29.93 in 8.0 mi NW 10.4 mph - N/A Snow Light Snow Showers
11:00 PM 33.8 °F 24.3 °F 26.6 °F 75% 29.92 in 10.0 mi NW 13.8 mph - N/A Snow Light Snow Showers